{"data":{"norad_id":64227,"intl_designator":"2025-117AA","name":"STARLINK-34330","alt_names":[],"object_type":"PAYLOAD","status":"ACTIVE","operator":null,"country":"US","launch_date":"2025-05-31","launch_site_code":"AFWTR","launch_vehicle":null,"mission":null,"orbit_class":"UNKNOWN","rcs_meters":null,"size_class":null,"mass_kg":null,"dimensions":null,"purposes":["comms"],"wikipedia_slug":null,"has_3d_model":false,"image_url":null,"decayed_at":null,"tle_current":{"epoch":"2026-05-25T00:35:31.400736Z","epoch_age_seconds":73025,"freshness":"FRESH","line1":"1 64227U 25117AA  26145.02466899  .00015995  00000+0  55092-3 0  9991","line2":"2 64227  53.1574  44.9743 0000834  70.7132 289.3959 15.30205550 56219","mean_motion":15.3020555,"eccentricity":8.34e-5,"inclination_deg":53.1574,"raan_deg":44.9743,"arg_perigee_deg":70.7132,"mean_anomaly_deg":289.3959,"bstar":0.00055092,"rev_number":5621,"period_min":94.10500438977,"perigee_km":474.62692998926,"apogee_km":475.77006635035,"semimajor_km":6853.3354981698,"source":"CELESTRAK","updated_at":"2026-05-25T13:38:20.348969Z"}}}